Regional Weather Roundup
Issued by NWS

Home | Current Version | Previous Version | Text Only | Print | Product List | Glossary On
Versions: 1 2 3 4 5 6 7 8 9 10 11 12 13 14 15 16 17 18 19 20 21 22 23 24 25 26 27 28 29 30 31 32 33 34 35 36 37 38 39 40 41 42 43 44 45 46 47 48 49 50
000
ASUS45 KBOU 250610
RWRCO

WEATHER ROUNDUP FOR COLORADO
NATIONAL WEATHER SERVICE DENVER/BOULDER CO
1100 PM MST SAT FEB 24 2018

NOTE: "FAIR" INDICATES FEW OR NO CLOUDS BELOW 12000 FEET WITH NO
SIGNIFICANT WEATHER AND/OR OBSTRUCTIONS TO VISIBILITY.

COZ001>005-013-030-031-250700-
...NORTHWEST COLORADO...

CITY           SKY/WX    TMP DP  RH WIND       PRES   REMARKS
CRAIG          LGT SNOW  18  14  84 W3        29.92S FOG
HAYDEN         LGT SNOW  15  12  88 CALM      29.91S FOG
MEEKER         CLOUDY    21  10  62 W6        29.91S WCI  13
RANGELY        FAIR      19  15  84 CALM      29.94F
RABBIT EARS PA LGT SNOW N/A N/A N/A W7        29.71S
STEAMBOAT SPGS CLOUDY    14  11  89 E3        29.87F VSB 3/4
WALDEN         CLOUDY    10   1  67 S9        29.80S WCI  -2
$$

COZ006>008-011-250700-
...WEST CENTRAL VALLEYS...

CITY           SKY/WX    TMP DP  RH WIND       PRES   REMARKS
GRAND JUNCTION CLOUDY    29  22  75 E6        29.96F WCI  23
MONTROSE       MOCLDY    28  12  51 W7        29.96S WCI  21
EAGLE          LGT SNOW  19  15  84 CALM      29.93S FOG
RIFLE          CLOUDY    24  14  65 CALM      29.95S
DELTA          CLOUDY    30  20  66 NE8       29.96S WCI  22
NUCLA          CLOUDY    27  18  69 S6        30.00F WCI  20
$$

COZ017>023-064>068-250700-
...SOUTHWEST COLORADO...

CITY           SKY/WX    TMP DP  RH WIND       PRES   REMARKS
DURANGO        CLOUDY    24  13  62 E3        29.95S
CORTEZ         CLOUDY    26  14  60 CALM      29.97S
PAGOSA SPRINGS LGT SNOW  20  11  66 CALM      29.94S
TELLURIDE      LGT SNOW  15  11  85 CALM      29.89S
WOLF CREEK PAS CLOUDY     1   0  92 S20G30    29.82S WCI -20
$$

COZ009-010-012-014-032>034-037-058>063-250700-
...CENTRAL COLORADO...

CITY           SKY/WX    TMP DP  RH WIND       PRES   REMARKS
ASPEN          CLOUDY    13   6  74 SW3       29.85S
BUENA VISTA    CLOUDY    18   4  53 W8        29.84S WCI   8
COPPER MTN     CLOUDY     5  -4  66 W18G29    29.68S HAZE    WCI -15
BERTHOUD PASS  LGT SNOW  -6 -15  65 NW30G40   29.61F WCI -34
COTTONWOOD PAS CLOUDY    16   9  73 NW6       29.78S WCI   7
GUNNISON       LGT SNOW  17  13  84 SW6       29.89S FOG     WCI   9
GRANBY         FLURRIES  12   8  81 W5        29.83S WCI   5
KREMMLING      FAIR      21  10  63 W8        29.86S WCI  12
LEADVILLE      CLOUDY     5   0  79 NE6       29.76S WCI  -6
MONARCH PASS   CLOUDY     0  -4  85 SW24      29.81F WCI -24
SALIDA         CLOUDY    22   6  51 SW13G18   29.95S WCI  10
SUNLIGHT       SNOW       3   0  85 SW9G16    29.81F VSB 1/2 WCI -11
WILKERSON PASS FAIR       1  -4  78 SW18G29   29.71R WCI -19
$$

COZ069>075-250700-
...SAN LUIS VALLEY/SANGRE DE CRISTO MOUNTAINS...

CITY           SKY/WX    TMP DP  RH WIND       PRES   REMARKS
ALAMOSA        FAIR      13  -1  54 S7        29.90R WCI   3
DEL NORTE      CLOUDY    20   4  49 W9        29.88S WCI  10
LA VETA PASS   MOCLDY    12  -4  48 S20G40    29.91S WCI  -6
SAGUACHE       NOT AVBL
$$

COZ035-036-038>040-250700-
...NORTHERN COLORADO FRONT RANGE...

CITY           SKY/WX    TMP DP  RH WIND       PRES   REMARKS
DENVER INTL AP FAIR      17   6  62 S13       29.84R WCI   4
AURORA         PTCLDY    19   3  49 SE8       29.84S WCI   9
FRONT RANGE AP FAIR      21  10  62 S6        29.85R WCI  13
ERIE MUNI ARPT FAIR      30   3  31 SW14      29.90R WCI  19
BOULDER MUN AP FAIR      23   1  39 NW3       29.83R
CENTENNIAL     FAIR      22   3  44 VRB3      29.83R
BROOMFIELD     NOT AVBL
FORT COLLINS   FAIR      27   6  41 W10       29.84R WCI  17
LONGMONT       FAIR      25   3  40 SE5       29.86R WCI  19
$$

COZ041-046-047-076>085-087-088-250700-
...PIKES PEAK/PALMER DIVIDE AND SOUTHERN FOOTHILLS...

CITY           SKY/WX    TMP DP  RH WIND       PRES   REMARKS
COLO. SPRINGS  MOCLDY    23   3  42 S15       29.85R WCI  10
A. F. ACADEMY  FAIR      27  -5  24 W13       29.81R WCI  16
SCHRIEVER AFB  NOT AVBL
CHEYENNE MTN   FAIR      22  -3  33 S10       29.78R WCI  11
ELLICOTT         N/A    N/A N/A N/A SE6       29.83R
FALCON         CLOUDY    19   0  42 SE3       29.84R
FORT CARSON    FAIR      23   1  38 CALM      29.85R
LIMON          MOCLDY    13   8  81 CALM      29.85S
MONUMENT HILL  FAIR      23  -2  33 SW17G28   29.81S WCI   9
CANON CITY     CLEAR     27   3  36 W8        29.85S WCI  18
WALSENBURG     NOT AVBL
TRINIDAD       FAIR      31  -4  22 W16       29.84R WCI  20
$$

COZ042>045-048>051-090-091-250700-
...NORTHEAST COLORADO...

CITY           SKY/WX    TMP DP  RH WIND       PRES   REMARKS
GREELEY ARPT   FAIR      21   9  59 CALM      29.86R
AKRON          FAIR      23  10  57 W12       29.84R WCI  12
BURLINGTON     FAIR      15  10  80 W7        29.88R WCI   5
WRAY           MOCLDY    28  16  59 SW6       29.88R WCI  22
YUMA           NOT AVBL
STERLING       CLOUDY    32   9  37 W8        29.83F WCI  25
HOLYOKE        FAIR      28  12  50 W9        29.85S WCI  20
FORT MORGAN    FAIR      19   8  62 S6        29.87R WCI  11
$$

COZ086-089-092>099-250700-
...SOUTHEAST COLORADO...

CITY           SKY/WX    TMP DP  RH WIND       PRES   REMARKS
PUEBLO         FAIR      25   6  44 NE8       29.88R WCI  16
LA JUNTA       FAIR      23   7  50 E9        29.90R WCI  13
LAMAR          FAIR      18   5  57 CALM      29.89F
SPRINGFIELD      N/A     21  11  65 S6        29.82F WCI  13
$$



USA.gov is the U.S. government's official web portal to all federal, state and local government web resources and services.